Location: Gad�tanya
(48.0500°N, 20.8500°E)
Time: 11:51:59
(UTC+00:00)

Cosmos 1825 - Pass Details

Date: 05 July 2020
Orbit: 502 x 509 km, 82.5° (Epoch: 14 August)

Event Time Altitude Azimuth Distance (km) Brightness Sun altitude
Exits shadow 21:58:00 41° 215° (SW) 749 2.6 -18.6°
Maximum altitude 21:59:09 66° 281° (W) 561 2.3 -18.6°
Drops below altitude 10° 22:02:56 10° 4° (N) 1,739 6.0 -18.8°
Sets 22:05:06 0° 8° (N) 2,630 7.2 -18.8°
